• In Sweden
  • List of Countries
  • For 7 days
  • Water Temperature
  • Satellite Maps
  • Weather Map
  • Weather Widgets
  • user-avatar
    Login

    Hourly Weather Sergeykovo

    Today, 21 June, Thursday

    Time Temperature Precipitation Wind Pressure Humidity
    00:00 +13°C° 0 mm 2 mps 741 mmHg 83%
    01:00 +13°C° 0 mm 2 mps 741 mmHg 85%
    02:00 +10°C° 0 mm 2 mps 741 mmHg 88%
    03:00 +10°C° 0 mm 2 mps 741 mmHg 86%
    04:00 +12°C° 0 mm 2 mps 741 mmHg 84%
    05:00 +12°C° 0 mm 3 mps 741 mmHg 81%
    06:00 +14°C° 0 mm 3 mps 741 mmHg 75%
    07:00 +17°C° 0 mm 3 mps 741 mmHg 69%
    08:00 +19°C° 0 mm 3 mps 741 mmHg 63%
    09:00 +21°C° 0 mm 4 mps 741 mmHg 60%
    10:00 +22°C° 0 mm 4 mps 741 mmHg 57%
    11:00 +25°C° 0 mm 5 mps 741 mmHg 54%
    12:00 +25°C° 0 mm 5 mps 741 mmHg 53%
    13:00 +26°C° 0 mm 5 mps 740 mmHg 52%
    14:00 +26°C° 0 mm 5 mps 740 mmHg 51%
    15:00 +26°C° 0 mm 4 mps 740 mmHg 54%
    16:00 +26°C° 0 mm 4 mps 740 mmHg 57%
    17:00 +25°C° 0 mm 3 mps 739 mmHg 60%
    18:00 +24°C° 0 mm 3 mps 739 mmHg 68%
    19:00 +21°C° 0 mm 3 mps 739 mmHg 76%
    20:00 +20°C° 0 mm 2 mps 739 mmHg 83%
    21:00 +19°C° 0 mm 2 mps 739 mmHg 86%
    22:00 +18°C° 0 mm 2 mps 739 mmHg 90%
    23:00 +17°C° 0 mm 3 mps 738 mmHg 93%

    Tomorrow, 22 June, Friday

    Time Temperature Precipitation Wind Pressure Humidity
    00:00 +17°C° 0 mm 3 mps 738 mmHg 92%
    01:00 +18°C° 0 mm 3 mps 738 mmHg 90%
    02:00 +18°C° 0 mm 3 mps 738 mmHg 89%
    03:00 +18°C° 0.1 mm 4 mps 737 mmHg 90%
    04:00 +18°C° 0.1 mm 4 mps 737 mmHg 90%
    05:00 +19°C° 0.1 mm 5 mps 736 mmHg 91%
    06:00 +20°C° 0.2 mm 5 mps 736 mmHg 88%
    07:00 +21°C° 0.2 mm 5 mps 736 mmHg 85%
    08:00 +22°C° 0.2 mm 6 mps 736 mmHg 82%
    09:00 +23°C° 0.5 mm 6 mps 736 mmHg 82%
    10:00 +24°C° 0.5 mm 6 mps 736 mmHg 81%
    11:00 +24°C° 0.5 mm 6 mps 735 mmHg 81%
    12:00 +24°C° 1.1 mm 6 mps 736 mmHg 84%
    13:00 +23°C° 1.1 mm 5 mps 736 mmHg 87%
    14:00 +22°C° 1.1 mm 5 mps 736 mmHg 91%
    15:00 +21°C° 0.8 mm 4 mps 736 mmHg 92%
    16:00 +19°C° 0.8 mm 4 mps 736 mmHg 93%
    17:00 +18°C° 0.8 mm 3 mps 737 mmHg 94%
    18:00 +17°C° 0.1 mm 3 mps 737 mmHg 93%
    19:00 +16°C° 0.1 mm 2 mps 737 mmHg 93%
    20:00 +16°C° 0.1 mm 2 mps 738 mmHg 93%
    21:00 +15°C° 0 mm 2 mps 738 mmHg 93%
    22:00 +14°C° 0 mm 2 mps 738 mmHg 94%
    23:00 +13°C° 0 mm 2 mps 739 mmHg 94%

    Day after tomorrow, 23 June, Saturday

    Time Temperature Precipitation Wind Pressure Humidity
    00:00 +13°C° 0 mm 2 mps 739 mmHg 93%
    01:00 +12°C° 0 mm 1 mps 739 mmHg 92%
    02:00 +12°C° 0 mm 1 mps 739 mmHg 91%
    03:00 +12°C° 0 mm 1 mps 739 mmHg 90%
    04:00 +12°C° 0 mm 1 mps 739 mmHg 89%
    05:00 +13°C° 0 mm 1 mps 740 mmHg 88%
    06:00 +13°C° 0.1 mm 1 mps 740 mmHg 88%
    07:00 +13°C° 0.1 mm 1 mps 740 mmHg 89%
    08:00 +13°C° 0.1 mm 1 mps 740 mmHg 89%
    09:00 +13°C° 0.4 mm 2 mps 739 mmHg 90%
    10:00 +13°C° 0.4 mm 2 mps 739 mmHg 92%
    11:00 +13°C° 0.4 mm 2 mps 739 mmHg 93%
    12:00 +12°C° 0.7 mm 3 mps 739 mmHg 94%
    13:00 +11°C° 0.7 mm 3 mps 738 mmHg 94%
    14:00 +11°C° 0.7 mm 3 mps 738 mmHg 95%
    15:00 +11°C° 2.9 mm 4 mps 738 mmHg 95%
    16:00 +10°C° 2.9 mm 4 mps 737 mmHg 96%
    17:00 +10°C° 2.9 mm 4 mps 737 mmHg 96%
    18:00 +10°C° 1 mm 4 mps 737 mmHg 96%
    19:00 +10°C° 1 mm 4 mps 736 mmHg 96%
    20:00 +9°C° 1 mm 3 mps 736 mmHg 96%
    21:00 +9°C° 0.5 mm 3 mps 736 mmHg 97%
    22:00 +9°C° 0.5 mm 3 mps 736 mmHg 97%
    23:00 +9°C° 0.5 mm 3 mps 736 mmHg 97%

    24 June, Sunday

    Time Temperature Precipitation Wind Pressure Humidity
    00:00 +9°C° 0.7 mm 3 mps 736 mmHg 97%
    01:00 +9°C° 0.7 mm 3 mps 735 mmHg 97%
    02:00 +9°C° 0.7 mm 3 mps 735 mmHg 97%
    03:00 +9°C° 0.1 mm 3 mps 736 mmHg 97%
    04:00 +9°C° 0.1 mm 3 mps 736 mmHg 97%
    05:00 +9°C° 0.1 mm 3 mps 736 mmHg 97%
    06:00 +9°C° 0.6 mm 3 mps 736 mmHg 97%
    07:00 +9°C° 0.6 mm 3 mps 736 mmHg 97%
    08:00 +10°C° 0.6 mm 3 mps 737 mmHg 97%
    09:00 +11°C° 0.6 mm 3 mps 737 mmHg 94%
    10:00 +12°C° 0.6 mm 3 mps 737 mmHg 92%
    11:00 +13°C° 0.6 mm 3 mps 738 mmHg 89%
    12:00 +14°C° 0.1 mm 3 mps 738 mmHg 78%
    13:00 +17°C° 0.1 mm 4 mps 739 mmHg 67%
    14:00 +19°C° 0.1 mm 4 mps 739 mmHg 56%
    15:00 +19°C° 0 mm 3 mps 739 mmHg 57%
    16:00 +19°C° 0 mm 3 mps 740 mmHg 58%
    17:00 +19°C° 0 mm 3 mps 740 mmHg 59%
    18:00 +17°C° 0.1 mm 2 mps 740 mmHg 68%
    19:00 +16°C° 0.1 mm 2 mps 740 mmHg 78%
    20:00 +14°C° 0.1 mm 2 mps 741 mmHg 87%
    21:00 +13°C° 0 mm 2 mps 741 mmHg 90%
    22:00 +12°C° 0 mm 2 mps 741 mmHg 93%
    23:00 +10°C° 0 mm 2 mps 742 mmHg 95%

    25 June, Monday

    Time Temperature Precipitation Wind Pressure Humidity
    00:00 +10°C° 0 mm 2 mps 742 mmHg 96%
    01:00 +10°C° 0 mm 2 mps 742 mmHg 97%
    02:00 +9°C° 0 mm 2 mps 742 mmHg 97%
    03:00 +10°C° 0 mm 2 mps 742 mmHg 97%
    04:00 +10°C° 0 mm 2 mps 743 mmHg 96%
    05:00 +10°C° 0 mm 2 mps 743 mmHg 96%
    06:00 +13°C° 0 mm 2 mps 743 mmHg 89%
    07:00 +15°C° 0 mm 2 mps 743 mmHg 82%
    08:00 +17°C° 0 mm 2 mps 744 mmHg 75%
    09:00 +18°C° 0 mm 3 mps 744 mmHg 68%
    10:00 +19°C° 0 mm 3 mps 744 mmHg 61%
    11:00 +20°C° 0 mm 3 mps 744 mmHg 55%
    12:00 +21°C° 0.1 mm 3 mps 744 mmHg 55%
    13:00 +21°C° 0.1 mm 3 mps 744 mmHg 55%
    14:00 +21°C° 0.1 mm 3 mps 744 mmHg 55%
    15:00 +21°C° 0.3 mm 3 mps 744 mmHg 60%
    16:00 +20°C° 0.3 mm 3 mps 744 mmHg 64%
    17:00 +20°C° 0.3 mm 2 mps 744 mmHg 68%
    18:00 +18°C° 0.1 mm 2 mps 744 mmHg 75%
    19:00 +17°C° 0.1 mm 2 mps 744 mmHg 81%
    20:00 +15°C° 0.1 mm 1 mps 744 mmHg 88%
    21:00 +14°C° 0 mm 1 mps 745 mmHg 90%
    22:00 +13°C° 0 mm 1 mps 745 mmHg 92%
    23:00 +12°C° 0 mm 1 mps 745 mmHg 95%

    26 June, Tuesday

    Time Temperature Precipitation Wind Pressure Humidity
    00:00 +12°C° 0 mm 1 mps 745 mmHg 95%
    01:00 +12°C° 0 mm 1 mps 745 mmHg 95%
    02:00 +11°C° 0 mm 1 mps 745 mmHg 96%
    03:00 +12°C° 0 mm 1 mps 745 mmHg 95%
    04:00 +12°C° 0 mm 1 mps 746 mmHg 94%
    05:00 +12°C° 0 mm 1 mps 746 mmHg 94%
    06:00 +14°C° 0 mm 1 mps 746 mmHg 85%
    07:00 +16°C° 0 mm 1 mps 746 mmHg 77%
    08:00 +19°C° 0 mm 1 mps 746 mmHg 69%
    09:00 +19°C° 0.2 mm 2 mps 746 mmHg 65%
    10:00 +20°C° 0.2 mm 2 mps 746 mmHg 60%
    11:00 +21°C° 0.2 mm 3 mps 746 mmHg 56%
    12:00 +22°C° 0.3 mm 3 mps 746 mmHg 56%
    13:00 +22°C° 0.3 mm 3 mps 746 mmHg 57%
    14:00 +22°C° 0.3 mm 3 mps 746 mmHg 57%
    15:00 +22°C° 0.2 mm 3 mps 746 mmHg 60%
    16:00 +23°C° 0.2 mm 2 mps 746 mmHg 63%
    17:00 +21°C° 0.2 mm 2 mps 746 mmHg 66%
    18:00 +20°C° 0.1 mm 2 mps 746 mmHg 73%
    19:00 +19°C° 0.1 mm 1 mps 746 mmHg 80%
    20:00 +16°C° 0.1 mm 1 mps 746 mmHg 87%
    21:00 +16°C° 0 mm 1 mps 746 mmHg 88%
    22:00 +15°C° 0 mm 1 mps 746 mmHg 90%
    23:00 +14°C° 0 mm 1 mps 746 mmHg 91%
    Show more